Regional Weather Roundup
Issued by NWS

Home | Current Version | Previous Version | Text Only | Print | Product List | Glossary On
Versions: 1 2 3 4 5 6 7 8 9 10 11 12 13 14 15 16 17 18 19 20 21 22 23 24 25 26 27 28 29 30 31 32 33 34 35 36 37 38 39 40 41 42 43 44 45 46 47 48 49 50
000
ASUS44 KJAN 181410
RWRMS

MISSISSIPPI HOURLY WEATHER ROUNDUP
NATIONAL WEATHER SERVICE JACKSON MS
900 AM CDT SAT APR 18 2015

NOTE: "FAIR: INDICATES FEW OR NO CLOUDS BELOW 12,000 FEET WITH NO
SIGNIFICANT WEATHER AND/OR OBSTRUCTIONS TO VISIBILITY.

MSZ001>002-007>008-010>013-018>021-025>028-034>036-181500-
NORTHWEST MISSISSIPPI

CITY           SKY/WX    TMP DP  RH WIND       PRES   REMARKS
CLARKSDALE       N/A     64  64 100 SE7       29.96R
CLEVELAND      CLOUDY    64  64 100 E9        29.95R
GREENWOOD      CLOUDY    65  60  84 E7        29.95S
GREENVILLE     CLOUDY    66  63  90 E9        29.93R
OLIVE BRANCH   CLOUDY    61  61 100 SE6       29.97S
OXFORD         CLOUDY    59  59 100 E6        29.98R
TUNICA         CLOUDY    63  63 100 CALM      29.97R
$$

MSZ003>006-009-014>017-022>024-029>033-037>039-181500-
NORTHEAST MISSISSIPPI

CITY           SKY/WX    TMP DP  RH WIND       PRES   REMARKS
COLUMBUS AFB   CLOUDY    64  63  96 SE6       29.97S
CORINTH        CLOUDY    63  61  94 CALM      29.97F FOG
GOLDN TRIANGLE CLOUDY    64  61  88 SE5       29.97R
STARKVILLE     CLOUDY    63  61  94 E7        29.98R
TUPELO         CLOUDY    63  60  90 E6        29.97F
$$

MSZ040-058-181500-
CENTRAL MISSISSIPPI

CITY           SKY/WX    TMP DP  RH WIND       PRES   REMARKS
JACKSON INTL   CLOUDY    66  62  87 SE8       29.94F
JACKSON HAWKNS CLOUDY    65  62  90 SE7       29.95R
MERIDIAN KEY   CLOUDY    65  61  87 E8        29.97R
MERIDIAN NAS   CLOUDY    65  60  84 E6        29.97S
VICKSBURG      CLOUDY    67  64  90 SE8       29.93R
$$

MSZ059>079-181500-
SOUTH MISSISSIPPI

CITY           SKY/WX    TMP DP  RH WIND       PRES   REMARKS
BROOKHAVEN     CLOUDY    66  66 100 SE5       29.95R
HATTIESBURG    LGT RAIN  66  65  96 E5        29.95F FOG
MCCOMB         CLOUDY    68  67  96 SE8       29.94R
NATCHEZ        CLOUDY    66  64  94 SE8       29.91S
PINE BELT      CLOUDY    64  61  88 E5        29.96S
$$

MSZ080>082-181500-
COASTAL MISSISSIPPI

CITY           SKY/WX    TMP DP  RH WIND       PRES   REMARKS
BAY ST LOUIS   RAIN      70  64  83 MISG      29.97R
BILOXI         LGT RAIN  69  69 100 E3        29.97R
PASCAGOULA     LGT RAIN  69  68  96 CALM      29.99R
GULFPORT       LGT RAIN  69  67  93 CALM      29.97R
$$



USA.gov is the U.S. government's official web portal to all federal, state and local government web resources and services.